| time (UTC) | temp C | wind direction | speed KPH | gust KPH | rain 1hr cm | rain 24hr cm | rain mn cm | humidity % | barometer mb |
| 20260903193039 | 27 | 221 | 4.8 | 8.0 | 0.00 | 0.00 | 0.00 | 43 | 1013.9 |
| 20260903192537 | 27 | 221 | 4.8 | 11.3 | 0.00 | 0.00 | 0.00 | 43 | 1014.0 |
| 20260903192036 | 27 | 221 | 4.8 | 11.3 | 0.00 | 0.00 | 0.00 | 42 | 1014.2 |
| 20260903191807 | 27 | 221 | 4.8 | 9.7 | 0.00 | 0.00 | 0.00 | 43 | 1014.2 |
| 20260903191037 | 27 | 208 | 3.2 | 9.7 | 0.00 | 0.00 | 0.00 | 44 | 1014.3 |
| 20260903190806 | 27 | 206 | 3.2 | 11.3 | 0.00 | 0.00 | 0.00 | 45 | 1014.4 |
| 20260903190036 | 26 | 207 | 4.8 | 11.3 | 0.00 | 0.00 | 0.00 | 45 | 1014.4 |
| 20260903185536 | 26 | 208 | 6.4 | 11.3 | 0.00 | 0.00 | 0.00 | 45 | 1014.5 |
| 20260903185308 | 26 | 226 | 4.8 | 11.3 | 0.00 | 0.00 | 0.00 | 45 | 1014.6 |
| 20260903184536 | 26 | 213 | 1.6 | 4.8 | 0.00 | 0.00 | 0.00 | 46 | 1014.7 |
| 20260903184307 | 26 | 213 | 3.2 | 14.5 | 0.00 | 0.00 | 0.00 | 48 | 1014.8 |
| 20260903183536 | 26 | 213 | 4.8 | 14.5 | 0.00 | 0.00 | 0.00 | 47 | 1014.9 |
| 20260903183035 | 26 | 212 | 3.2 | 9.7 | 0.00 | 0.00 | 0.00 | 45 | 1015.0 |
| 20260903182806 | 25 | 213 | 3.2 | 9.7 | 0.00 | 0.00 | 0.00 | 46 | 1014.9 |
| 20260903182036 | 25 | 212 | 3.2 | 8.0 | 0.00 | 0.00 | 0.00 | 45 | 1015.0 |
| 20260903181035 | 25 | 214 | 1.6 | 11.3 | 0.00 | 0.00 | 0.00 | 50 | 1015.0 |
| 20260903180548 | 25 | 215 | 1.6 | 11.3 | 0.00 | 0.00 | 0.00 | 52 | 1015.0 |
| 20260903180306 | 25 | 215 | 4.8 | 11.3 | 0.00 | 0.00 | 0.00 | 54 | 1015.1 |
| 20260903175535 | 24 | 215 | 4.8 | 11.3 | 0.00 | 0.00 | 0.00 | 53 | 1015.1 |
| 20260903175033 | 25 | 216 | 3.2 | 9.7 | 0.00 | 0.00 | 0.00 | 54 | 1015.2 |
| 20260903174532 | 24 | 219 | 3.2 | 9.7 | 0.00 | 0.00 | 0.00 | 55 | 1015.2 |
| 20260903174039 | 23 | 219 | 3.2 | 9.7 | 0.00 | 0.00 | 0.00 | 56 | 1015.2 |
| 20260903173523 | 23 | 219 | 4.8 | 8.0 | 0.00 | 0.00 | 0.00 | 57 | 1015.3 |
| 20260903173024 | 23 | 219 | 4.8 | 9.7 | 0.00 | 0.00 | 0.00 | 58 | 1015.3 |
| 20260903172754 | 23 | 220 | 3.2 | 9.7 | 0.00 | 0.00 | 0.00 | 59 | 1015.3 |
| 20260903172020 | 23 | 221 | 3.2 | 9.7 | 0.00 | 0.00 | 0.00 | 59 | 1015.4 |
| 20260903171520 | 23 | 221 | 4.8 | 11.3 | 0.00 | 0.00 | 0.00 | 59 | 1015.3 |
| 20260903171251 | 23 | 223 | 3.2 | 11.3 | 0.00 | 0.00 | 0.00 | 59 | 1015.3 |
| 20260903170530 | 23 | 223 | 3.2 | 8.0 | 0.00 | 0.00 | 0.00 | 61 | 1015.3 |
| 20260903170248 | 22 | 223 | 4.8 | 9.7 | 0.00 | 0.00 | 0.00 | 61 | 1015.3 |
| 20260903165518 | 22 | 223 | 3.2 | 9.7 | 0.00 | 0.00 | 0.00 | 61 | 1015.3 |
| 20260903165015 | 22 | 223 | 1.6 | 6.4 | 0.00 | 0.00 | 0.00 | 63 | 1015.3 |
| 20260903164744 | 22 | 223 | 1.6 | 8.0 | 0.00 | 0.00 | 0.00 | 63 | 1015.3 |
| 20260903164015 | 22 | 223 | 3.2 | 8.0 | 0.00 | 0.00 | 0.00 | 65 | 1015.3 |
| 20260903163513 | 21 | 223 | 3.2 | 8.0 | 0.00 | 0.00 | 0.00 | 65 | 1015.3 |
| 20260903163012 | 21 | 223 | 3.2 | 8.0 | 0.00 | 0.00 | 0.00 | 66 | 1015.3 |
| 20260903162743 | 21 | 223 | 1.6 | 6.4 | 0.00 | 0.00 | 0.00 | 67 | 1015.3 |
| 20260903162240 | 21 | 223 | 1.6 | 6.4 | 0.00 | 0.00 | 0.00 | 68 | 1015.3 |
| 20260903161509 | 21 | 223 | 3.2 | 6.4 | 0.00 | 0.00 | 0.00 | 69 | 1015.4 |
| 20260903160505 | 20 | 223 | 3.2 | 8.0 | 0.00 | 0.00 | 0.00 | 71 | 1015.5 |
| 20260903160005 | 20 | 223 | 3.2 | 8.0 | 0.00 | 0.00 | 0.00 | 71 | 1015.5 |
| 20260903155500 | 20 | 223 | 3.2 | 8.0 | 0.00 | 0.00 | 0.00 | 72 | 1015.5 |
| 20260903154959 | 20 | 223 | 3.2 | 6.4 | 0.00 | 0.00 | 0.00 | 72 | 1015.5 |
| 20260903154500 | 19 | 223 | 3.2 | 8.0 | 0.00 | 0.00 | 0.00 | 73 | 1015.5 |
| 20260903153959 | 19 | 223 | 3.2 | 8.0 | 0.00 | 0.00 | 0.00 | 73 | 1015.5 |
| 20260903153457 | 19 | 223 | 3.2 | 6.4 | 0.00 | 0.00 | 0.00 | 73 | 1015.6 |
| 20260903152957 | 19 | 223 | 1.6 | 6.4 | 0.00 | 0.00 | 0.00 | 74 | 1015.6 |
| 20260903152459 | 19 | 223 | 3.2 | 6.4 | 0.00 | 0.00 | 0.00 | 75 | 1015.6 |
| 20260903151956 | 18 | 223 | 3.2 | 6.4 | 0.00 | 0.00 | 0.00 | 75 | 1015.5 |
| 20260903151725 | 18 | 223 | 1.6 | 6.4 | 0.00 | 0.00 | 0.00 | 76 | 1015.5 |
| 20260903150954 | 18 | 223 | 1.6 | 6.4 | 0.00 | 0.00 | 0.00 | 77 | 1015.4 |
| 20260903150452 | 18 | 223 | 1.6 | 6.4 | 0.00 | 0.00 | 0.00 | 78 | 1015.5 |
| 20260903145951 | 18 | 223 | 3.2 | 6.4 | 0.00 | 0.00 | 0.00 | 78 | 1015.5 |
| 20260903145450 | 18 | 223 | 1.6 | 4.8 | 0.00 | 0.00 | 0.00 | 79 | 1015.5 |
| 20260903144951 | 18 | 223 | 0.0 | 4.8 | 0.00 | 0.00 | 0.00 | 80 | 1015.5 |
| 20260903144448 | 17 | 223 | 1.6 | 4.8 | 0.00 | 0.00 | 0.00 | 80 | 1015.4 |
| 20260903143946 | 17 | 223 | 1.6 | 4.8 | 0.00 | 0.00 | 0.00 | 81 | 1015.3 |
| 20260903143446 | 17 | 223 | 0.0 | 3.2 | 0.00 | 0.00 | 0.00 | 81 | 1015.2 |
| 20260903143211 | 17 | 223 | 0.0 | 3.2 | 0.00 | 0.00 | 0.00 | 82 | 1015.1 |
| 20260903142437 | 17 | 223 | 0.0 | 4.8 | 0.00 | 0.00 | 0.00 | 82 | 1015.1 |
| 20260903141939 | 17 | 223 | 0.0 | 4.8 | 0.00 | 0.00 | 0.00 | 82 | 1015.0 |
| 20260903141707 | 17 | 223 | 0.0 | 0.0 | 0.00 | 0.00 | 0.00 | 83 | 1014.9 |
| 20260903140933 | 16 | 223 | 0.0 | 0.0 | 0.00 | 0.00 | 0.00 | 83 | 1014.8 |
| 20260903140435 | 16 | 223 | 0.0 | 0.0 | 0.00 | 0.00 | 0.00 | 83 | 1014.8 |
| 20260903135933 | 16 | 223 | 0.0 | 0.0 | 0.00 | 0.00 | 0.00 | 82 | 1014.8 |
| 20260903135702 | 16 | 223 | 0.0 | 0.0 | 0.00 | 0.00 | 0.00 | 82 | 1014.7 |
| 20260903134930 | 16 | 223 | 0.0 | 0.0 | 0.00 | 0.00 | 0.00 | 82 | 1014.7 |
| 20260903134658 | 16 | 223 | 0.0 | 0.0 | 0.00 | 0.00 | 0.00 | 82 | 1014.7 |
| 20260903134156 | 16 | 223 | 0.0 | 0.0 | 0.00 | 0.00 | 0.00 | 82 | 1014.6 |
| 20260903133426 | 16 | 223 | 0.0 | 0.0 | 0.00 | 0.00 | 0.00 | 82 | 1014.6 |
| 20260903132919 | 16 | 223 | 0.0 | 0.0 | 0.00 | 0.00 | 0.00 | 82 | 1014.6 |
| 20260903132419 | 16 | 223 | 0.0 | 0.0 | 0.00 | 0.00 | 0.00 | 82 | 1014.6 |
| 20260903131920 | 16 | 223 | 0.0 | 0.0 | 0.00 | 0.00 | 0.00 | 81 | 1014.6 |
| 20260903131646 | 16 | 223 | 0.0 | 0.0 | 0.00 | 0.00 | 0.00 | 81 | 1014.7 |
| 20260903130913 | 16 | 223 | 0.0 | 0.0 | 0.00 | 0.00 | 0.00 | 81 | 1014.6 |
| 20260903130414 | 16 | 223 | 0.0 | 0.0 | 0.00 | 0.00 | 0.00 | 81 | 1014.7 |
| 20260903125910 | 16 | 223 | 0.0 | 0.0 | 0.00 | 0.00 | 0.00 | 81 | 1014.7 |
| 20260903125410 | 16 | 223 | 0.0 | 0.0 | 0.00 | 0.00 | 0.00 | 81 | 1014.6 |
| 20260903125142 | 16 | 223 | 0.0 | 0.0 | 0.00 | 0.00 | 0.00 | 81 | 1014.7 |
| 20260903124407 | 16 | 223 | 0.0 | 0.0 | 0.00 | 0.00 | 0.00 | 81 | 1014.7 |
| 20260903123908 | 16 | 223 | 0.0 | 0.0 | 0.00 | 0.00 | 0.00 | 81 | 1014.7 |
| 20260903123408 | 16 | 223 | 0.0 | 0.0 | 0.00 | 0.00 | 0.00 | 81 | 1014.7 |
| 20260903122908 | 16 | 223 | 0.0 | 0.0 | 0.00 | 0.00 | 0.00 | 81 | 1014.6 |
| 20260903122405 | 16 | 223 | 0.0 | 0.0 | 0.00 | 0.00 | 0.00 | 81 | 1014.6 |
| 20260903122135 | 16 | 223 | 0.0 | 0.0 | 0.00 | 0.00 | 0.00 | 80 | 1014.7 |
| 20260903121405 | 16 | 223 | 0.0 | 0.0 | 0.00 | 0.00 | 0.00 | 80 | 1014.6 |
| 20260903120915 | 17 | 223 | 0.0 | 0.0 | 0.00 | 0.00 | 0.00 | 80 | 1014.7 |
| 20260903120359 | 17 | 223 | 0.0 | 0.0 | 0.00 | 0.00 | 0.00 | 80 | 1014.7 |
| 20260903115900 | 17 | 223 | 0.0 | 0.0 | 0.00 | 0.00 | 0.00 | 80 | 1014.7 |
| 20260903115357 | 17 | 223 | 0.0 | 0.0 | 0.00 | 0.00 | 0.00 | 80 | 1014.7 |
| 20260903114627 | 17 | 223 | 0.0 | 0.0 | 0.00 | 0.00 | 0.00 | 80 | 1014.8 |
| 20260903114125 | 17 | 223 | 0.0 | 0.0 | 0.00 | 0.00 | 0.00 | 79 | 1014.8 |
| 20260903113353 | 17 | 223 | 0.0 | 0.0 | 0.00 | 0.00 | 0.00 | 79 | 1014.9 |
| 20260903113136 | 17 | 223 | 0.0 | 0.0 | 0.00 | 0.00 | 0.00 | 79 | 1014.9 |
| 20260903112349 | 17 | 223 | 0.0 | 0.0 | 0.00 | 0.00 | 0.00 | 79 | 1014.8 |
| 20260903111849 | 17 | 223 | 0.0 | 0.0 | 0.00 | 0.00 | 0.00 | 78 | 1014.8 |
| 20260903111348 | 17 | 223 | 0.0 | 0.0 | 0.00 | 0.00 | 0.00 | 78 | 1014.9 |
| 20260903110854 | 17 | 223 | 0.0 | 0.0 | 0.00 | 0.00 | 0.00 | 78 | 1014.9 |
| 20260903110339 | 17 | 223 | 0.0 | 1.6 | 0.00 | 0.00 | 0.00 | 78 | 1015.0 |
| 20260903105840 | 17 | 223 | 0.0 | 1.6 | 0.00 | 0.00 | 0.00 | 78 | 1014.9 |
| 20260903105336 | 17 | 223 | 0.0 | 4.8 | 0.00 | 0.00 | 0.00 | 78 | 1015.0 |
| 20260903105108 | 17 | 223 | 0.0 | 4.8 | 0.00 | 0.00 | 0.00 | 78 | 1015.1 |
| 20260903104336 | 17 | 223 | 0.0 | 1.6 | 0.00 | 0.00 | 0.00 | 78 | 1015.0 |
| 20260903103833 | 17 | 223 | 0.0 | 3.2 | 0.00 | 0.00 | 0.00 | 78 | 1015.0 |
| 20260903102833 | 17 | 223 | 0.0 | 1.6 | 0.00 | 0.00 | 0.00 | 77 | 1014.9 |
| 20260903102606 | 17 | 223 | 0.0 | 3.2 | 0.00 | 0.00 | 0.00 | 77 | 1015.1 |
| 20260903101835 | 17 | 223 | 0.0 | 3.2 | 0.00 | 0.00 | 0.00 | 77 | 1015.1 |
| 20260903101335 | 17 | 223 | 0.0 | 3.2 | 0.00 | 0.00 | 0.00 | 77 | 1015.1 |
| 20260903100834 | 17 | 223 | 1.6 | 3.2 | 0.00 | 0.00 | 0.00 | 77 | 1015.1 |
| 20260903100332 | 17 | 223 | 0.0 | 3.2 | 0.00 | 0.00 | 0.00 | 77 | 1015.1 |
| 20260903095832 | 17 | 223 | 0.0 | 1.6 | 0.00 | 0.00 | 0.00 | 76 | 1015.1 |
| 20260903095333 | 17 | 223 | 0.0 | 3.2 | 0.00 | 0.00 | 0.00 | 76 | 1015.1 |
| 20260903094833 | 18 | 223 | 0.0 | 3.2 | 0.00 | 0.00 | 0.00 | 76 | 1015.0 |
| 20260903094332 | 18 | 223 | 0.0 | 4.8 | 0.00 | 0.00 | 0.00 | 76 | 1015.2 |
| 20260903093833 | 18 | 223 | 1.6 | 4.8 | 0.00 | 0.00 | 0.00 | 76 | 1015.2 |
| 20260903093332 | 18 | 223 | 1.6 | 4.8 | 0.00 | 0.00 | 0.00 | 75 | 1015.2 |
| 20260903092826 | 18 | 223 | 1.6 | 4.8 | 0.00 | 0.00 | 0.00 | 75 | 1015.2 |
| 20260903092324 | 18 | 223 | 1.6 | 4.8 | 0.00 | 0.00 | 0.00 | 75 | 1015.3 |
| 20260903091825 | 18 | 223 | 1.6 | 4.8 | 0.00 | 0.00 | 0.00 | 74 | 1015.4 |
| 20260903091323 | 18 | 223 | 1.6 | 6.4 | 0.00 | 0.00 | 0.00 | 74 | 1015.4 |
| 20260903090825 | 18 | 223 | 1.6 | 6.4 | 0.00 | 0.00 | 0.00 | 74 | 1015.5 |
| 20260903090554 | 18 | 223 | 1.6 | 4.8 | 0.00 | 0.00 | 0.00 | 73 | 1015.5 |
| 20260903090052 | 18 | 223 | 1.6 | 4.8 | 0.00 | 0.00 | 0.00 | 73 | 1015.5 |
| 20260903085323 | 18 | 223 | 1.6 | 6.4 | 0.00 | 0.00 | 0.00 | 73 | 1015.6 |
| 20260903085054 | 18 | 223 | 1.6 | 6.4 | 0.00 | 0.00 | 0.00 | 73 | 1015.6 |
| 20260903084836 | 18 | 223 | 1.6 | 6.4 | 0.00 | 0.00 | 0.00 | 73 | 1015.6 |
| 20260903084322 | 18 | 223 | 3.2 | 4.8 | 0.00 | 0.00 | 0.00 | 73 | 1015.6 |
| 20260903083821 | 18 | 223 | 3.2 | 4.8 | 0.00 | 0.00 | 0.00 | 73 | 1015.7 |
| 20260903083550 | 18 | 223 | 1.6 | 4.8 | 0.00 | 0.00 | 0.00 | 73 | 1015.7 |
| 20260903083335 | 18 | 223 | 1.6 | 4.8 | 0.00 | 0.00 | 0.00 | 73 | 1015.7 |
| 20260903083051 | 18 | 223 | 3.2 | 6.4 | 0.00 | 0.00 | 0.00 | 73 | 1015.7 |
| 20260903082313 | 18 | 223 | 3.2 | 6.4 | 0.00 | 0.00 | 0.00 | 73 | 1015.7 |
| 20260903081813 | 18 | 223 | 1.6 | 6.4 | 0.00 | 0.00 | 0.00 | 73 | 1015.8 |
| 20260903081314 | 18 | 223 | 3.2 | 8.0 | 0.00 | 0.00 | 0.00 | 73 | 1015.8 |
| 20260903080812 | 18 | 223 | 3.2 | 8.0 | 0.00 | 0.00 | 0.00 | 73 | 1015.8 |
| 20260903075812 | 18 | 223 | 3.2 | 6.4 | 0.00 | 0.00 | 0.00 | 72 | 1015.7 |
| 20260903075312 | 18 | 223 | 3.2 | 6.4 | 0.00 | 0.00 | 0.00 | 72 | 1015.7 |
| 20260903074809 | 18 | 223 | 3.2 | 4.8 | 0.00 | 0.00 | 0.00 | 72 | 1015.7 |
| 20260903074541 | 18 | 223 | 3.2 | 4.8 | 0.00 | 0.00 | 0.00 | 72 | 1015.7 |
| 20260903074039 | 18 | 223 | 3.2 | 4.8 | 0.00 | 0.00 | 0.00 | 72 | 1015.7 |
| 20260903072805 | 18 | 223 | 1.6 | 4.8 | 0.00 | 0.00 | 0.00 | 72 | 1015.7 |
| 20260903072535 | 18 | 223 | 3.2 | 4.8 | 0.00 | 0.00 | 0.00 | 72 | 1015.7 |
| 20260903071803 | 18 | 223 | 1.6 | 4.8 | 0.00 | 0.00 | 0.00 | 72 | 1015.7 |
| 20260903071301 | 18 | 223 | 1.6 | 4.8 | 0.00 | 0.00 | 0.00 | 72 | 1015.6 |
| 20260903070802 | 18 | 223 | 1.6 | 4.8 | 0.00 | 0.00 | 0.00 | 72 | 1015.6 |
| 20260903070303 | 18 | 223 | 0.0 | 3.2 | 0.00 | 0.00 | 0.00 | 72 | 1015.7 |
| 20260903070030 | 18 | 223 | 0.0 | 4.8 | 0.00 | 0.00 | 0.00 | 72 | 1015.7 |
| 20260903065257 | 18 | 223 | 1.6 | 4.8 | 0.00 | 0.00 | 0.00 | 72 | 1015.7 |
| 20260903064758 | 18 | 223 | 1.6 | 4.8 | 0.00 | 0.00 | 0.00 | 72 | 1015.7 |
| 20260903064254 | 19 | 223 | 1.6 | 4.8 | 0.00 | 0.00 | 0.00 | 72 | 1015.7 |
| 20260903063754 | 18 | 223 | 1.6 | 4.8 | 0.00 | 0.00 | 0.00 | 72 | 1015.7 |
| 20260903063255 | 18 | 223 | 1.6 | 4.8 | 0.00 | 0.00 | 0.00 | 72 | 1015.7 |
| 20260903062756 | 18 | 223 | 0.0 | 4.8 | 0.00 | 0.00 | 0.00 | 72 | 1015.6 |
| 20260903062253 | 18 | 223 | 0.0 | 4.8 | 0.00 | 0.00 | 0.00 | 72 | 1015.7 |
| 20260903061753 | 18 | 223 | 1.6 | 3.2 | 0.00 | 0.00 | 0.00 | 73 | 1015.7 |
| 20260903061246 | 18 | 223 | 1.6 | 3.2 | 0.00 | 0.00 | 0.00 | 74 | 1015.7 |
| 20260903060747 | 18 | 223 | 0.0 | 1.6 | 0.00 | 0.00 | 0.00 | 72 | 1015.7 |
| 20260903060246 | 18 | 223 | 0.0 | 1.6 | 0.00 | 0.00 | 0.00 | 73 | 1015.7 |
| 20260903055746 | 19 | 223 | 0.0 | 3.2 | 0.00 | 0.00 | 0.00 | 73 | 1015.7 |
| 20260903055245 | 19 | 223 | 0.0 | 3.2 | 0.00 | 0.00 | 0.00 | 73 | 1015.7 |
| 20260903054745 | 19 | 223 | 0.0 | 1.6 | 0.00 | 0.00 | 0.00 | 72 | 1015.7 |
| 20260903054245 | 19 | 223 | 1.6 | 8.0 | 0.00 | 0.00 | 0.00 | 73 | 1015.7 |
| 20260903054014 | 19 | 223 | 1.6 | 8.0 | 0.00 | 0.00 | 0.00 | 73 | 1015.6 |
| 20260903053240 | 19 | 223 | 0.0 | 3.2 | 0.00 | 0.00 | 0.00 | 72 | 1015.7 |
| 20260903052739 | 19 | 223 | 1.6 | 6.4 | 0.00 | 0.00 | 0.00 | 72 | 1015.7 |
| 20260903052507 | 20 | 223 | 3.2 | 6.4 | 0.00 | 0.00 | 0.00 | 73 | 1015.6 |
| 20260903051736 | 20 | 223 | 4.8 | 9.7 | 0.00 | 0.00 | 0.00 | 72 | 1015.6 |
| 20260903051510 | 20 | 223 | 4.8 | 9.7 | 0.00 | 0.00 | 0.00 | 72 | 1015.5 |
| 20260903051035 | 20 | 223 | 6.4 | 12.9 | 0.00 | 0.00 | 0.00 | 71 | 1015.4 |
| 20260903050516 | 20 | 223 | 6.4 | 14.5 | 0.00 | 0.00 | 0.00 | 71 | 1015.3 |
| 20260903050426 | 20 | 223 | 8.0 | 14.5 | 0.00 | 0.00 | 0.00 | 71 | 1015.4 |
| 20260903050123 | 20 | 217 | 8.0 | 16.1 | 0.00 | 0.00 | 0.00 | 71 | 1015.3 |
| 20260903045845 | 20 | 223 | 8.0 | 14.5 | 0.00 | 0.00 | 0.00 | 71 | 1015.3 |
| 20260903045748 | 20 | 219 | 8.0 | 14.5 | 0.00 | 0.00 | 0.00 | 71 | 1015.4 |
| 20260903043507 | 20 | 217 | 8.0 | 17.7 | 0.00 | 0.00 | 0.00 | 71 | 1015.3 |
| 20260903043247 | 20 | 217 | 8.0 | 17.7 | 0.00 | 0.00 | 0.00 | 71 | 1015.3 |
| 20260903043008 | 20 | 219 | 8.0 | 17.7 | 0.00 | 0.00 | 0.00 | 70 | 1015.2 |
| 20260903042749 | 20 | 219 | 8.0 | 17.7 | 0.00 | 0.00 | 0.00 | 70 | 1015.2 |
| 20260903042249 | 21 | 225 | 8.0 | 16.1 | 0.00 | 0.00 | 0.00 | 70 | 1015.1 |
| 20260903041735 | 21 | 218 | 8.0 | 16.1 | 0.00 | 0.00 | 0.00 | 70 | 1015.1 |
| 20260903041507 | 21 | 228 | 9.7 | 16.1 | 0.00 | 0.00 | 0.00 | 69 | 1015.1 |
| 20260903040733 | 21 | 227 | 9.7 | 14.5 | 0.00 | 0.00 | 0.00 | 69 | 1015.1 |
| 20260903040708 | 21 | 218 | 6.4 | 12.9 | 0.00 | 0.00 | 0.00 | 66 | 1014.8 |
| 20260903040621 | 21 | 215 | 8.0 | 14.5 | 0.00 | 0.00 | 0.00 | 68 | 1015.0 |
| 20260903040512 | 21 | 219 | 8.0 | 14.5 | 0.00 | 0.00 | 0.00 | 68 | 1014.9 |
| 20260903040417 | 21 | 216 | 8.0 | 14.5 | 0.00 | 0.00 | 0.00 | 67 | 1014.9 |
| 20260903034500 | 21 | 217 | 8.0 | 16.1 | 0.00 | 0.00 | 0.00 | 65 | 1014.7 |
| 20260903033729 | 22 | 218 | 9.7 | 16.1 | 0.00 | 0.00 | 0.00 | 65 | 1014.7 |
| 20260903033500 | 22 | 222 | 9.7 | 16.1 | 0.00 | 0.00 | 0.00 | 64 | 1014.5 |
| 20260903032955 | 22 | 221 | 9.7 | 17.7 | 0.00 | 0.00 | 0.00 | 64 | 1014.4 |
| 20260903032225 | 22 | 222 | 8.0 | 17.7 | 0.00 | 0.00 | 0.00 | 63 | 1014.4 |
| 20260903031725 | 22 | 223 | 9.7 | 14.5 | 0.00 | 0.00 | 0.00 | 62 | 1014.4 |
| 20260903031226 | 22 | 223 | 9.7 | 16.1 | 0.00 | 0.00 | 0.00 | 62 | 1014.3 |
| 20260903030721 | 22 | 219 | 11.3 | 19.3 | 0.00 | 0.00 | 0.00 | 61 | 1014.3 |
| 20260903030222 | 22 | 223 | 11.3 | 19.3 | 0.00 | 0.00 | 0.00 | 60 | 1014.3 |
| 20260903025721 | 23 | 218 | 11.3 | 19.3 | 0.00 | 0.00 | 0.00 | 59 | 1014.3 |
| 20260903025452 | 23 | 225 | 11.3 | 19.3 | 0.00 | 0.00 | 0.00 | 58 | 1014.2 |
| 20260903024717 | 23 | 212 | 12.9 | 19.3 | 0.00 | 0.00 | 0.00 | 56 | 1014.2 |
| 20260903024217 | 23 | 224 | 12.9 | 22.5 | 0.00 | 0.00 | 0.00 | 55 | 1014.1 |
| 20260903023948 | 23 | 225 | 12.9 | 22.5 | 0.00 | 0.00 | 0.00 | 54 | 1014.0 |
| 20260903023759 | 23 | 225 | 12.9 | 22.5 | 0.00 | 0.00 | 0.00 | 54 | 1014.0 |
| 20260903023217 | 24 | 235 | 14.5 | 22.5 | 0.00 | 0.00 | 0.00 | 53 | 1014.0 |
| 20260903022943 | 24 | 224 | 14.5 | 24.1 | 0.00 | 0.00 | 0.00 | 52 | 1013.9 |
| 20260903022213 | 24 | 213 | 12.9 | 24.1 | 0.00 | 0.00 | 0.00 | 50 | 1013.9 |
| 20260903021944 | 25 | 227 | 12.9 | 22.5 | 0.00 | 0.00 | 0.00 | 48 | 1013.9 |
| 20260903021213 | 25 | 230 | 14.5 | 22.5 | 0.00 | 0.00 | 0.00 | 47 | 1013.9 |
| 20260903020712 | 25 | 225 | 12.9 | 20.9 | 0.00 | 0.00 | 0.00 | 45 | 1013.9 |
| 20260903020444 | 25 | 238 | 11.3 | 19.3 | 0.00 | 0.00 | 0.00 | 43 | 1013.9 |
| 20260903015712 | 25 | 215 | 12.9 | 24.1 | 0.00 | 0.00 | 0.00 | 42 | 1013.8 |
| 20260903015212 | 25 | 232 | 14.5 | 24.1 | 0.00 | 0.00 | 0.00 | 41 | 1013.8 |
| 20260903014712 | 26 | 238 | 14.5 | 25.7 | 0.00 | 0.00 | 0.00 | 39 | 1013.8 |
| 20260903014212 | 26 | 214 | 14.5 | 25.7 | 0.00 | 0.00 | 0.00 | 39 | 1013.8 |
| 20260903013713 | 26 | 223 | 12.9 | 22.5 | 0.00 | 0.00 | 0.00 | 38 | 1013.7 |
| 20260903013213 | 26 | 219 | 11.3 | 19.3 | 0.00 | 0.00 | 0.00 | 38 | 1013.7 |
| 20260903012940 | 26 | 226 | 11.3 | 19.3 | 0.00 | 0.00 | 0.00 | 37 | 1013.8 |
| 20260903012209 | 26 | 220 | 11.3 | 24.1 | 0.00 | 0.00 | 0.00 | 38 | 1013.7 |
| 20260903011709 | 27 | 201 | 12.9 | 24.1 | 0.00 | 0.00 | 0.00 | 39 | 1013.7 |
| 20260903011210 | 27 | 217 | 14.5 | 25.7 | 0.00 | 0.00 | 0.00 | 40 | 1013.7 |
| 20260903010935 | 27 | 221 | 14.5 | 25.7 | 0.00 | 0.00 | 0.00 | 40 | 1013.7 |
| 20260903010205 | 27 | 217 | 16.1 | 24.1 | 0.00 | 0.00 | 0.00 | 41 | 1013.7 |
| 20260903005936 | 27 | 224 | 12.9 | 24.1 | 0.00 | 0.00 | 0.00 | 40 | 1013.6 |
| 20260903004701 | 28 | 232 | 12.9 | 25.7 | 0.00 | 0.00 | 0.00 | 41 | 1013.6 |
| 20260903004201 | 28 | 219 | 14.5 | 22.5 | 0.00 | 0.00 | 0.00 | 41 | 1013.6 |
| 20260903003932 | 28 | 224 | 12.9 | 25.7 | 0.00 | 0.00 | 0.00 | 41 | 1013.5 |
| 20260903003202 | 28 | 214 | 11.3 | 25.7 | 0.00 | 0.00 | 0.00 | 40 | 1013.6 |
| 20260903002656 | 28 | 236 | 12.9 | 20.9 | 0.00 | 0.00 | 0.00 | 40 | 1013.5 |
| 20260903002158 | 28 | 235 | 14.5 | 25.7 | 0.00 | 0.00 | 0.00 | 39 | 1013.6 |
| 20260903001710 | 28 | 221 | 16.1 | 25.7 | 0.00 | 0.00 | 0.00 | 39 | 1013.5 |
| 20260903001211 | 28 | 227 | 14.5 | 22.5 | 0.00 | 0.00 | 0.00 | 38 | 1013.5 |
| 20260903000652 | 28 | 216 | 14.5 | 25.7 | 0.00 | 0.00 | 0.00 | 38 | 1013.6 |
| 20260903000154 | 29 | 242 | 12.9 | 25.7 | 0.00 | 0.00 | 0.00 | 37 | 1013.6 |
| 20260902235654 | 29 | 222 | 11.3 | 22.5 | 0.00 | 0.00 | 0.00 | 40 | 1013.6 |
| 20260902234649 | 30 | 213 | 11.3 | 24.1 | 0.00 | 0.00 | 0.00 | 39 | 1013.7 |
| 20260902234420 | 30 | 219 | 11.3 | 22.5 | 0.00 | 0.00 | 0.00 | 39 | 1013.7 |
| 20260902233718 | 30 | 253 | 12.9 | 22.5 | 0.00 | 0.00 | 0.00 | 40 | 1013.7 |
| 20260902233150 | 30 | 220 | 12.9 | 19.3 | 0.00 | 0.00 | 0.00 | 38 | 1013.7 |
| 20260902232916 | 30 | 266 | 11.3 | 17.7 | 0.00 | 0.00 | 0.00 | 38 | 1013.7 |
| 20260902232416 | 30 | 229 | 9.7 | 24.1 | 0.00 | 0.00 | 0.00 | 37 | 1013.7 |
| 20260902231917 | 30 | 202 | 11.3 | 24.1 | 0.00 | 0.00 | 0.00 | 36 | 1013.8 |
| 20260902231145 | 30 | 221 | 11.3 | 20.9 | 0.00 | 0.00 | 0.00 | 37 | 1013.8 |
| 20260902230641 | 30 | 221 | 12.9 | 24.1 | 0.00 | 0.00 | 0.00 | 36 | 1013.8 |
| 20260902230412 | 30 | 215 | 12.9 | 24.1 | 0.00 | 0.00 | 0.00 | 36 | 1013.9 |
| 20260902225641 | 31 | 221 | 11.3 | 24.1 | 0.00 | 0.00 | 0.00 | 33 | 1013.9 |
| 20260902225141 | 31 | 218 | 11.3 | 24.1 | 0.00 | 0.00 | 0.00 | 32 | 1013.9 |
| 20260902224138 | 31 | 201 | 9.7 | 19.3 | 0.00 | 0.00 | 0.00 | 30 | 1014.0 |
| 20260902223638 | 31 | 217 | 9.7 | 20.9 | 0.00 | 0.00 | 0.00 | 29 | 1014.0 |
| 20260902223408 | 31 | 225 | 11.3 | 22.5 | 0.00 | 0.00 | 0.00 | 29 | 1014.1 |
| 20260902222632 | 31 | 221 | 11.3 | 22.5 | 0.00 | 0.00 | 0.00 | 30 | 1014.2 |
| 20260902222133 | 31 | 223 | 11.3 | 20.9 | 0.00 | 0.00 | 0.00 | 27 | 1014.3 |
| 20260902221633 | 31 | 217 | 9.7 | 20.9 | 0.00 | 0.00 | 0.00 | 29 | 1014.3 |
| 20260902221133 | 31 | 219 | 11.3 | 19.3 | 0.00 | 0.00 | 0.00 | 30 | 1014.4 |
| 20260902220628 | 31 | 215 | 11.3 | 22.5 | 0.00 | 0.00 | 0.00 | 29 | 1014.4 |
| 20260902220129 | 31 | 202 | 11.3 | 22.5 | 0.00 | 0.00 | 0.00 | 28 | 1014.5 |
| 20260902215901 | 31 | 248 | 9.7 | 20.9 | 0.00 | 0.00 | 0.00 | 28 | 1014.5 |
| 20260902215635 | 31 | 248 | 9.7 | 20.9 | 0.00 | 0.00 | 0.00 | 28 | 1014.5 |
| 20260902215147 | 30 | 224 | 9.7 | 20.9 | 0.00 | 0.00 | 0.00 | 28 | 1014.5 |
| 20260902214625 | 31 | 226 | 9.7 | 20.9 | 0.00 | 0.00 | 0.00 | 28 | 1014.6 |
| 20260902214125 | 31 | 209 | 9.7 | 17.7 | 0.00 | 0.00 | 0.00 | 29 | 1014.6 |
| 20260902213625 | 31 | 220 | 9.7 | 17.7 | 0.00 | 0.00 | 0.00 | 28 | 1014.6 |
| 20260902213125 | 31 | 215 | 8.0 | 22.5 | 0.00 | 0.00 | 0.00 | 29 | 1014.6 |
| 20260902212620 | 31 | 229 | 8.0 | 22.5 | 0.00 | 0.00 | 0.00 | 29 | 1014.7 |
| 20260902212121 | 31 | 229 | 9.7 | 19.3 | 0.00 | 0.00 | 0.00 | 30 | 1014.7 |
| 20260902211852 | 30 | 201 | 9.7 | 17.7 | 0.00 | 0.00 | 0.00 | 29 | 1014.8 |
| 20260902211122 | 30 | 223 | 6.4 | 17.7 | 0.00 | 0.00 | 0.00 | 31 | 1014.9 |
| 20260902210618 | 30 | 225 | 8.0 | 17.7 | 0.00 | 0.00 | 0.00 | 31 | 1014.9 |
| 20260902210117 | 30 | 237 | 11.3 | 20.9 | 0.00 | 0.00 | 0.00 | 33 | 1015.0 |
| 20260902205848 | 30 | 221 | 9.7 | 20.9 | 0.00 | 0.00 | 0.00 | 33 | 1015.1 |
| 20260902205118 | 30 | 227 | 8.0 | 17.7 | 0.00 | 0.00 | 0.00 | 33 | 1015.2 |
| 20260902204612 | 30 | 238 | 8.0 | 16.1 | 0.00 | 0.00 | 0.00 | 35 | 1015.2 |
| 20260902203613 | 30 | 257 | 8.0 | 16.1 | 0.00 | 0.00 | 0.00 | 34 | 1015.3 |
| 20260902203114 | 30 | 221 | 8.0 | 16.1 | 0.00 | 0.00 | 0.00 | 34 | 1015.2 |
| 20260902202839 | 30 | 202 | 6.4 | 16.1 | 0.00 | 0.00 | 0.00 | 35 | 1015.3 |
| 20260902202109 | 30 | 223 | 8.0 | 17.7 | 0.00 | 0.00 | 0.00 | 36 | 1015.3 |
| 20260902201609 | 30 | 254 | 8.0 | 17.7 | 0.00 | 0.00 | 0.00 | 37 | 1015.4 |
| 20260902201109 | 30 | 236 | 4.8 | 12.9 | 0.00 | 0.00 | 0.00 | 37 | 1015.5 |
| 20260902200605 | 30 | 236 | 6.4 | 12.9 | 0.00 | 0.00 | 0.00 | 37 | 1015.6 |
| 20260902200106 | 30 | 229 | 6.4 | 14.5 | 0.00 | 0.00 | 0.00 | 37 | 1015.6 |
| 20260902195606 | 29 | 213 | 8.0 | 16.1 | 0.00 | 0.00 | 0.00 | 33 | 1015.7 |
| 20260902195106 | 28 | 223 | 6.4 | 17.7 | 0.00 | 0.00 | 0.00 | 34 | 1015.7 |
| 20260902194600 | 28 | 224 | 8.0 | 17.7 | 0.00 | 0.00 | 0.00 | 37 | 1015.8 |
| 20260902194101 | 28 | 220 | 8.0 | 14.5 | 0.00 | 0.00 | 0.00 | 36 | 1015.8 |
| 20260902193601 | 28 | 220 | 8.0 | 14.5 | 0.00 | 0.00 | 0.00 | 35 | 1015.9 |